World of Logs combat log analyzer allows gamers to save, share and analyze their raiding experiences conveniently and thoroughly in the Blizzard MMO World of Warcraft. If you're new here, make sure you check out the tour for a 1 minute introduction. If you have any questions, we're happy to answer them on the forums.

DPS HPS
Odyn
Helya
Guarm
Reports for Will of the Emperor - statistics
# Date Time Damage DPS Guild Realm
1 02 Jul 2014 02:40 540.40M 3359403.0 Bubbles Logs US-Proudmoore
2 07 Apr 2013 04:14 572.74M 2250565.5 Aurora EU-Stormrage
3 26 May 2013 04:19 575.44M 2215390.1 Vigil US-Mal'Ganis
4 24 May 2013 04:28 574.82M 2139251.3 1st World Inc. EU-Kazzak
5 08 Sep 2014 04:30 591.69M 2183798.9 AAR EU-Ghostlands
6 27 Dec 2012 05:02 606.55M 2003841.3 Великая Инквизиция EU-Ясеневый лес
7 28 Nov 2012 05:21 640.48M 1990098.2 Tempest EU-Blackmoore
8 23 Dec 2012 05:22 641.68M 1991891.1 Cross US-Ragnaros
9 04 Dec 2012 05:22 646.29M 2004698.4 Accidentally EU-Burning Legion
10 05 Dec 2012 05:23 645.58M 1994283.7 Encore US-Illidan
11 21 Jan 2013 05:25 640.71M 1968886.2 Make It Happen US-Stormreaver
12 19 Dec 2012 05:28 681.16M 2071423.6 Synaisthesis EU-Ревущий фьорд
13 29 Nov 2012 05:31 650.07M 1958648.6 Encore US-Illidan
14 11 Feb 2013 05:35 686.28M 2044722.0 No Name US-Shadowmoon
15 17 Dec 2012 05:45 646.64M 1869634.1 AdActa EU-Antonidas
16 26 Dec 2012 05:48 702.97M 2017044.0 Имя Говорит Само за Себя EU-Гордунни
17 21 Jan 2013 05:50 699.00M 1994889.7 Set Sail for Fail EU-Nathrezim
18 21 Jan 2013 05:50 699.00M 1994605.1 Set Sail for Fail EU-Nathrezim
19 09 Sep 2014 05:54 647.85M 1828017.4 Jaish US-Area 52
20 28 Apr 2013 05:57 637.71M 1782468.0 Vitriol US-Tichondrius
21 19 Dec 2012 05:58 717.24M 2003291.9 Aurora EU-Stormrage
22 20 Nov 2012 06:01 648.26M 1794459.4 Nurfed US-Tichondrius
23 11 Feb 2013 06:01 717.41M 1981865.2 Vanguard EU-Kazzak
24 11 Dec 2012 06:04 714.53M 1959981.1 "М И Б" 87 EU-Черный Шрам
25 11 Dec 2012 06:04 714.49M 1959825.0 М И Б EU-Король-лич
26 11 Dec 2012 06:04 714.45M 1959487.4 М И Б EU-Король-лич
27 23 Apr 2013 06:06 648.09M 1766565.6 Talons of the Zephyr US-Firetree
28 24 Jan 2013 06:07 714.44M 1945244.5 Set Sail for Fail EU-Nathrezim
29 08 Jan 2013 06:07 718.13M 1953594.9 Black Division EU-Drak'thul
30 25 Feb 2013 06:07 718.96M 1955846.8 Phoenix EU-Silvermoon
31 11 Dec 2012 06:08 719.21M 1949155.5 Ad Infinitum EU-Ravencrest
32 13 Dec 2012 06:09 716.40M 1938121.4 Blint US-Mal'Ganis
33 18 Dec 2012 06:09 717.75M 1941376.9 Би Негатив EU-Разувий
34 13 Dec 2012 06:09 716.40M 1937440.0 FInal Logs US-Dalaran
35 23 Dec 2012 06:10 718.34M 1941194.4 critical luders EU-Durotan
36 03 Mar 2013 06:10 718.81M 1941595.0 Nero EU-Thrall
37 27 Feb 2013 06:10 717.32M 1936026.0 Petrie's Logs US-Doomhammer
38 13 Dec 2012 06:10 719.29M 1939891.5 Promethean US-Malfurion
39 13 Dec 2012 06:10 719.29M 1939818.2 spammins Logs US-Cho'gall
40 06 Jan 2013 06:11 718.22M 1934969.2 Something Wicked US-Whisperwind
41 01 Jan 2013 06:11 710.62M 1910712.1 E X O D U S EU-Aggramar
42 20 Dec 2012 06:12 717.93M 1929167.3 The Fabled US-Hyjal
43 28 Jan 2013 06:12 715.67M 1922776.4 A Necessary Evil EU-Hellfire
44 17 Jan 2013 06:12 718.59M 1930610.2 Drow US-Stormreaver
45 30 Dec 2012 06:13 720.71M 1932123.1 Fragile EU-Twisting Nether
46 14 Jan 2013 06:13 718.57M 1926266.0 Quantum Leap EU-Pozzo dell'Eternità
47 03 Jun 2013 06:13 647.72M 1732559.8 QQ1 EU-Silvermoon
48 04 Feb 2013 06:14 716.72M 1911355.3 Blue Label US-Barthilas
49 24 Feb 2013 06:16 719.15M 1910673.2 Nero EU-Thrall
50 28 Dec 2012 06:16 719.18M 1909840.6 КрашТест EU-Разувий
51 15 Dec 2012 06:16 717.93M 1904617.1 М И Б EU-Король-лич
52 13 Jan 2013 06:18 718.42M 1900380.2 Abstinentia EU-Blackrock
53 03 Mar 2013 06:18 718.23M 1896100.6 Inept EU-Frostmane
54 31 Jan 2013 06:19 718.89M 1892539.7 Friend Zone US-Darkspear
55 31 Jan 2013 06:19 718.89M 1892494.8 Reports US-Arthas
56 05 Apr 2013 06:19 647.05M 1703211.5 Swims in Lava US-Blackrock
57 23 Dec 2012 06:20 718.06M 1889223.8 Drachensilber EU-Die Silberne Hand
58 05 Dec 2012 06:21 718.31M 1883867.8 The Last Watch EU-Turalyon
59 13 Dec 2012 06:21 718.17M 1881836.7 Black Division EU-Drak'thul
60 21 Jan 2013 06:21 716.92M 1877639.8 Красные EU-Гордунни
61 21 Jan 2013 06:21 716.92M 1877148.2 Красные EU-Гордунни
62 14 Jan 2013 06:22 675.40M 1766488.2 Make It Happen US-Stormreaver
63 02 Dec 2012 06:23 717.80M 1872927.7 Ad Infinitum EU-Ravencrest
64 14 Jan 2013 06:23 718.78M 1875066.3 Suit Up US-Frostmourne
65 03 Jan 2013 06:24 718.69M 1870460.8 Pulse EU-Blackmoore
66 10 Feb 2013 06:24 718.35M 1868510.4 Кибератлеты EU-Страж Смерти
67 03 Feb 2013 06:24 718.83M 1868705.9 НТ EU-Пиратская бухта
68 15 Jan 2013 06:25 709.64M 1841361.3 Getts Log US-Mal'Ganis
69 04 Feb 2013 06:25 720.67M 1869963.9 PathFinders EU-Bronzebeard
70 15 Jan 2013 06:25 709.57M 1840581.9 Bloodletters logs US-Kel'Thuzad
71 05 Dec 2012 06:25 717.85M 1861712.9 Echoes EU-Laughing Skull
72 04 Feb 2013 06:27 718.29M 1852763.7 Gamble US-Mal'Ganis
73 30 Dec 2012 06:28 718.60M 1850800.4 LA US-Stormrage
74 30 Dec 2012 06:28 718.60M 1850605.0 Naiyla's logs US-Mal'Ganis
75 24 Jan 2013 06:28 719.96M 1853831.0 Vox Radix US-Darkspear
76 01 Mar 2013 06:31 719.03M 1838712.1 Sad Personal Logging US-Proudmoore
77 28 Feb 2013 06:31 718.90M 1836963.9 Dunder Mifflin US-Proudmoore
78 24 Feb 2013 06:31 718.65M 1835385.8 Inept EU-Frostmane
79 16 Jan 2013 06:31 718.38M 1834434.6 Inept EU-Frostmane
80 07 Jan 2013 06:31 717.79M 1831279.1 Rainbow warriors EU-Kazzak
81 18 Dec 2012 06:32 718.38M 1832171.4 world of shit logs EU-Kazzak
82 07 Jan 2013 06:32 717.79M 1830620.6 Rixefanclub EU-Kazzak
83 07 Jan 2013 06:32 718.84M 1830388.5 The Nephilim EU-Neptulon
84 03 Mar 2013 06:32 720.27M 1833364.4 He took ma feather EU-Defias Brotherhood
85 03 Mar 2013 06:32 720.27M 1832972.5 Amused to Death EU-Defias Brotherhood
86 10 Dec 2012 06:33 718.07M 1824982.8 Moronic Impression EU-Frostwhisper
87 29 Jan 2013 06:33 719.04M 1827216.8 Syn EU-Archimonde
88 26 Dec 2012 06:33 718.64M 1824784.0 Omnium EU-Kael'thas
89 14 Jan 2013 06:34 718.00M 1822219.1 Stormstrike_FM US-Frostmourne
90 14 Jan 2013 06:34 718.00M 1822140.4 Suit Up US-Frostmourne
91 12 Dec 2012 06:34 718.42M 1821840.3 Noir EU-Kel'Thuzad
92 17 Jan 2013 06:34 719.06M 1821929.4 Les croisés EU-Illidan
93 04 May 2013 06:35 646.78M 1635900.4 Setha's logs US-Zul'jin
94 16 Dec 2012 06:35 718.50M 1815078.6 Bovine Intervention EU-Khadgar
95 13 Feb 2013 06:37 719.07M 1808696.3 Bty US-Doomhammer
96 10 Dec 2012 06:37 720.29M 1809985.7 Tyranny US-Shattered Hand
97 23 Dec 2012 06:38 718.81M 1802466.2 Legends Never Die EU-Anetheron
98 15 Jan 2013 06:39 718.44M 1800229.2 Nex EU-Blackrock
99 03 Mar 2013 06:39 698.01M 1747967.2 Solution Gig US-Greymane
100 12 Feb 2013 06:39 718.55M 1798690.2 Kalmankaarti EU-Shattered Hand

Please do not close the page with the ad you want to report.

I've posted a guide on how to report misbehaving ads on the forum. Please follow the instructions and help make the internet a safer place. Thanks for you time.